CAPE
0 0 0 0 0 0 0 0 0 0 0 0 0 0 0 0 0 0 4 6 0 0 0 2 4 1 4 11 11 1 2 10 13 6 9 10 5 1 0 0 0 0 0
0 0 0 0 0 0 0 0 0 0 0 0 0 0 0 0 0 1 3 6 0 0 0 0 0 3 3 6 21 2 3 1 10 8 7 3 6 4 1 1 0 0 0
0 0 0 0 0 0 0 0 0 0 0 0 0 0 0 0 0 1 2 5 1 0 0 0 2 3 2 14 11 12 13 2 0 25 19 11 9 10 0 0 1 0 0
0 0 0 0 0 0 0 0 0 0 0 0 0 0 0 0 0 0 7 5 5 0 0 0 0 3 1 17 5 5 7 4 3 2 3 10 5 2 3 0 0 1 0
0 0 0 0 0 0 0 0 0 0 0 0 0 0 0 0 0 0 2 4 7 0 1 0 0 0 5 21 13 6 0 4 5 0 0 0 0 0 0 1 1 0 0
0 0 0 0 0 0 0 0 0 0 0 0 0 0 0 0 0 0 1 2 6 0 0 0 0 0 5 7 13 4 2 0 0 7 0 1 1 0 0 0 0 0 0
0 0 0 0 0 0 0 0 0 0 0 0 0 0 0 0 0 0 0 0 7 0 0 0 0 0 5 11 7 8 0 0 0 3 2 5 6 0 0 0 0 0 0
0 0 0 0 0 0 0 0 0 0 0 0 0 0 0 0 0 0 0 0 2 0 0 0 0 0 5 16 6 1 1 0 0 0 1 0 1 2 4 3 0 0 0
0 0 0 0 0 0 0 0 0 0 0 0 0 0 0 0 0 0 0 0 0 0 0 0 0 0 5 4 2 0 0 0 3 0 0 2 3 4 4 1 1 1 0
0 0 0 0 0 0 0 0 0 0 0 0 0 0 0 0 0 0 0 0 0 0 0 0 0 0 2 2 0 3 1 0 1 0 1 0 0 0 1 0 0 1 1
0 0 0 0 0 0 0 0 0 0 0 0 0 0 0 0 0 0 0 0 0 0 0 0 0 0 0 0 0 0 0 0 0 0 1 0 0 0 0 1 0 0 0
0 0 0 0 0 0 0 0 0 0 0 0 0 0 0 0 0 0 0 0 0 0 0 0 0 0 0 0 0 0 0 0 0 0 0 0 0 0 1 0 0 0 0
0 0 0 0 0 0 0 0 0 0 0 0 0 0 0 0 0 0 0 1 0 0 0 0 0 0 0 0 0 0 0 0 0 0 0 0 0 0 0 1 0 1 1
0 0 0 0 0 0 0 0 0 0 0 0 0 0 0 0 0 0 0 0 2 3 0 0 0 0 0 0 0 0 0 0 0 0 0 0 0 0 0 0 0 0 0
0 0 0 0 0 0 0 0 0 0 0 0 0 0 0 0 0 0 0 1 1 0 0 0 0 0 0 0 0 0 0 0 0 0 0 0 0 0 0 0 0 0 0
0 0 0 0 0 0 0 0 0 0 0 0 0 0 0 0 0 0 0 0 0 0 0 0 0 0 0 0 0 0 0 0 0 0 0 0 0 0 0 0 0 0 0
0 0 0 0 0 0 0 0 0 0 0 0 0 0 0 0 0 0 0 0 0 0 0 0 0 0 0 0 0 0 0 0 0 0 0 0 0 0 0 0 0 0 0
0 0 0 0 0 0 0 0 0 0 0 0 0 0 0 0 0 0 0 0 0 0 0 0 0 0 0 0 0 0 0 0 0 0 0 0 0 0 0 0 0 0 0
0 0 0 0 0 0 0 0 0 0 0 0 0 0 0 0 0 0 0 0 0 0 0 0 0 0 0 0 0 0 0 0 0 0 0 0 0 0 0 0 0 0 0
0 0 0 0 0 0 0 0 0 0 0 0 0 0 0 0 0 0 0 0 0 0 0 0 0 0 0 0 0 0 0 0 0 0 0 0 0 0 0 0 0 0 0
0 0 0 0 0 0 0 0 0 0 0 0 0 0 0 0 0 0 0 0 0 0 0 0 0 1 0 0 0 0 0 0 0 0 0 0 0 0 0 0 0 0 0
0 0 0 0 0 0 0 0 0 0 0 0 0 0 0 0 0 0 0 0 0 0 1 0 0 1 0 0 0 1 1 0 0 0 0 0 0 0 0 0 0 0 0
0 0 0 0 0 0 0 0 0 0 0 0 0 0 0 0 0 0 0 0 1 0 0 0 0 0 1 1 0 0 0 0 1 0 0 0 0 0 0 0 0 0 0
0 0 0 0 0 0 0 0 0 0 0 0 0 0 0 0 0 0 0 0 1 0 0 0 0 0 0 0 0 0 0 0 0 2 0 0 0 0 0 0 0 0 0
0 0 0 0 0 0 0 0 0 0 0 0 0 0 0 0 0 0 0 0 0 0 0 1 1 1 0 0 0 0 0 1 0 1 0 0 0 0 0 0 0 0 0
0 0 0 0 0 0 0 0 0 0 0 0 0 0 0 0 0 0 0 0 0 0 0 0 0 0 0 0 0 0 0 0 1 0 0 0 0 0 0 0 0 0 0
CIN
-0 -0 -0 -0 -0 -0 -0 -0 -0 -0 -0 -0 -0 -0 -0 -0 -0 -0 -0 -1 -0 -0 -0 -1 -1 -2 -8 -1 -2 -8 -0 -1 -0 -0 -1 -0 -1 -0 -0 -0 -0 -1 -1
-0 -0 -0 -0 -0 -0 -0 -0 -0 -0 -0 -0 -0 -0 -0 -0 -0 -0 -1 -0 -0 -0 -0 -1 -1 -2 -1 -4 -0 -3 -2 -9 -2 -0 -1 -2 -1 -1 -0 -0 -0 -0 -0
-0 -0 -0 -0 -0 -0 -0 -0 -0 -0 -0 -0 -0 -0 -0 -0 -0 -0 -1 -0 -0 -0 -0 -0 -0 -0 -1 -0 -1 -3 -1 -1 -2 -0 -0 -2 -2 -1 -0 -1 -2 -0 -0
-0 -0 -0 -0 -0 -0 -0 -0 -0 -0 -0 -0 -0 -0 -0 -0 -0 -0 -4 -3 -0 -1 -0 -0 -0 -0 -1 -0 -1 -4 -1 -6 -1 -7 -2 -0 -7 -7 -9 -0 -0 -0 -0
-0 -0 -0 -0 -0 -0 -0 -0 -0 -0 -0 -0 -0 -0 -0 -0 -0 -0 -0 -3 -0 -0 -0 -0 -0 -0 -0 -0 -0 -0 -0 -2 -3 -7 -2 -0 -0 -0 -0 -0 -0 -0 -0
-0 -0 -0 -0 -0 -0 -0 -0 -0 -0 -0 -0 -0 -0 -0 -0 -0 -0 -0 -0 -0 -1 -0 -0 -0 -0 -2 -1 -3 -0 -0 -0 -0 -0 -1 -0 -0 -0 -0 -0 -0 -0 -0
-0 -0 -0 -0 -0 -0 -0 -0 -0 -0 -0 -0 -0 -0 -0 -0 -0 -0 -0 -0 -0 -0 -0 -0 -0 -0 -3 -2 -7 -0 -0 -1 -0 -0 -0 -0 -0 -12 -4 -0 -0 -0 -0
-0 -0 -0 -0 -0 -0 -0 -0 -0 -0 -0 -0 -0 -0 -0 -0 -0 -0 -0 -0 -0 -0 -0 -0 -0 -0 -2 -0 -4 -1 -2 -0 -0 -0 -0 -0 -0 -4 -1 -0 -0 -0 -0
-0 -0 -0 -0 -0 -0 -0 -0 -0 -0 -0 -0 -0 -0 -0 -0 -0 -0 -0 -0 -0 -0 -0 -0 -0 -0 -0 -0 -3 -0 -0 -0 -1 -0 -0 -0 -0 -0 -0 -0 -1 -1 -0
-0 -0 -0 -0 -0 -0 -0 -0 -0 -0 -0 -0 -0 -0 -0 -0 -0 -0 -0 -0 -0 -0 -0 -0 -0 -0 -0 -0 -0 -1 -2 -0 -1 -0 -0 -0 -0 -0 -0 -0 -1 -0 -1
-0 -0 -0 -0 -0 -0 -0 -0 -0 -0 -0 -0 -0 -0 -0 -0 -0 -0 -0 -0 -0 -0 -0 -0 -0 -0 -0 -0 -0 -0 -0 -0 -0 -0 -2 -0 -0 -0 -0 -2 -0 -0 -0
-0 -0 -0 -0 -0 -0 -0 -0 -0 -0 -0 -0 -0 -0 -0 -0 -0 -0 -0 -0 -0 -0 -0 -0 -0 -0 -0 -0 -0 -0 -0 -0 -0 -0 -0 -0 -0 -0 -1 -1 -0 -0 -0
-0 -0 -0 -0 -0 -0 -0 -0 -0 -0 -0 -0 -0 -0 -0 -0 -0 -0 -0 -0 -0 -0 -0 -0 -0 -0 -0 -0 -0 -0 -0 -0 -0 -0 -0 -0 -0 -0 -0 -1 -1 -1 -1
-0 -0 -0 -0 -0 -0 -0 -0 -0 -0 -0 -0 -0 -0 -0 -0 -0 -0 -0 -0 -0 -0 -0 -0 -0 -0 -0 -0 -0 -0 -0 -0 -0 -0 -0 -0 -0 -0 -0 -0 -0 -0 -0
-0 -0 -0 -0 -0 -0 -0 -0 -0 -0 -0 -0 -0 -0 -0 -0 -0 -0 -0 -0 -0 -0 -0 -0 -0 -0 -0 -0 -0 -0 -0 -0 -0 -0 -0 -0 -0 -0 -0 -0 -0 -0 -0
-0 -0 -0 -0 -0 -0 -0 -0 -0 -0 -0 -0 -0 -0 -0 -0 -0 -0 -0 -0 -0 -0 -0 -0 -0 -0 -0 -0 -0 -0 -0 -0 -0 -0 -0 -0 -0 -0 -0 -0 -0 -0 -0
-0 -0 -0 -0 -0 -0 -0 -0 -0 -0 -0 -0 -0 -0 -0 -0 -0 -0 -0 -0 -0 -0 -0 -0 -0 -0 -0 -0 -0 -0 -0 -0 -0 -0 -0 -0 -0 -0 -0 -0 -0 -0 -0
-0 -0 -0 -0 -0 -0 -0 -0 -0 -0 -0 -0 -0 -0 -0 -0 -0 -0 -0 -0 -0 -0 -0 -0 -0 -0 -0 -0 -0 -0 -0 -0 -0 -0 -0 -0 -0 -0 -0 -0 -0 -0 -0
-0 -0 -0 -0 -0 -0 -0 -0 -0 -0 -0 -0 -0 -0 -0 -0 -0 -0 -0 -0 -0 -0 -0 -0 -0 -0 -0 -0 -0 -0 -0 -0 -0 -0 -0 -0 -0 -0 -0 -0 -0 -0 -0
-0 -0 -0 -0 -0 -0 -0 -0 -0 -0 -0 -0 -0 -0 -0 -0 -0 -0 -0 -0 -0 -0 -0 -0 -0 -0 -0 -0 -0 -0 -0 -0 -0 -0 -0 -0 -0 -0 -0 -0 -0 -0 -0
-0 -0 -0 -0 -0 -0 -0 -0 -0 -0 -0 -0 -0 -0 -0 -0 -0 -0 -0 -0 -0 -0 -0 -0 -0 -0 -0 -0 -0 -0 -0 -0 -0 -0 -0 -0 -0 -0 -0 -0 -0 -0 -0
-0 -0 -0 -0 -0 -0 -0 -0 -0 -0 -0 -0 -0 -0 -0 -0 -0 -0 -0 -0 -0 -0 -0 -0 -0 -0 -0 -0 -0 -0 -0 -0 -0 -0 -0 -0 -0 -0 -0 -0 -0 -0 -0
-0 -0 -0 -0 -0 -0 -0 -0 -0 -0 -0 -0 -0 -0 -0 -0 -0 -0 -0 -0 -0 -0 -0 -0 -0 -0 -0 -0 -0 -0 -0 -0 -0 -0 -0 -0 -0 -0 -0 -0 -0 -0 -0
-0 -0 -0 -0 -0 -0 -0 -0 -0 -0 -0 -0 -0 -0 -0 -0 -0 -0 -0 -0 -0 -0 -0 -0 -0 -0 -1 -0 -0 -0 -0 -1 -0 -0 -0 -0 -0 -0 -0 -0 -0 -0 -0
-0 -0 -0 -0 -0 -0 -0 -0 -0 -0 -0 -0 -0 -0 -0 -0 -0 -0 -0 -1 -0 -0 -0 -0 -0 -0 -0 -0 -0 -0 -0 -0 -0 -0 -0 -0 -0 -0 -0 -0 -0 -0 -0
-0 -0 -0 -0 -0 -0 -0 -0 -0 -0 -0 -0 -0 -0 -0 -0 -0 -0 -0 -0 -0 -0 -0 -0 -0 -0 -0 -0 -0 -0 -0 -0 -0 -0 -0 -0 -0 -0 -0 -0 -0 -0 -0
Wind_Speed
7 7 7 8 8 9 10 11 12 13 14 16 17 18 18 19 19 23 22 22 24 24 24 24 22 24 19 17 17 16 21 22 6 22 23 22 21 20 19 19 20 18 17
6 7 7 8 8 9 10 11 12 13 14 15 17 18 19 19 20 21 23 22 24 23 24 23 22 22 21 14 16 16 13 27 16 23 22 22 21 20 19 18 18 20 19
6 6 6 7 8 9 10 11 12 13 14 16 17 18 19 20 20 20 23 22 24 22 21 21 20 20 19 12 16 17 10 8 23 18 23 21 21 20 19 19 19 20 21
5 5 6 6 8 9 10 11 12 13 14 16 17 18 19 19 19 21 23 22 23 22 20 18 18 16 14 10 15 9 7 11 6 18 22 22 20 21 20 21 22 23 24
4 4 5 6 7 8 9 10 11 13 14 15 16 17 19 19 19 21 22 23 23 24 20 18 16 13 10 11 9 9 8 14 12 7 6 23 22 22 22 22 23 24 23
3 3 4 5 6 7 9 10 11 12 14 15 16 16 17 17 19 20 21 21 23 23 23 18 13 7 10 4 7 6 6 10 11 10 11 6 18 22 22 22 22 21 20
2 2 3 4 5 6 8 9 10 12 13 14 15 15 16 16 17 19 20 20 21 22 22 18 11 2 6 7 2 2 5 5 8 10 9 6 10 20 22 22 20 21 22
2 1 2 2 4 6 7 8 10 11 12 13 13 14 14 14 16 17 19 19 20 21 20 16 11 2 9 9 4 4 6 5 9 9 9 8 7 7 6 19 19 21 22
5 4 2 1 2 4 5 6 8 9 11 11 12 12 13 13 14 15 18 19 19 21 19 15 11 4 9 10 6 5 6 5 7 14 11 9 8 8 8 11 17 18 19
6 5 4 2 1 2 3 5 7 7 9 10 10 10 11 11 13 15 16 17 19 20 19 15 12 6 9 11 6 6 6 6 9 10 10 12 10 8 9 10 9 10 16
5 5 4 3 2 1 2 4 6 7 8 9 9 9 10 11 12 14 15 16 17 19 17 15 12 10 7 9 8 7 6 6 9 10 12 14 14 13 11 11 9 10 10
5 4 4 3 2 1 2 3 5 6 7 9 9 10 11 12 11 13 14 14 16 17 16 14 12 9 7 8 9 7 7 9 11 11 12 14 12 12 13 13 11 10 9
3 3 3 3 2 1 1 3 4 5 6 8 10 11 11 12 12 12 13 13 15 16 15 13 11 10 9 11 12 13 12 13 13 14 13 13 12 11 10 13 13 11 10
3 3 2 2 1 1 1 2 3 5 6 7 9 10 11 11 12 13 14 14 15 16 17 14 11 9 9 10 12 15 16 17 15 16 16 14 12 12 12 14 11 10 9
4 3 3 2 2 1 1 1 3 3 5 6 7 9 11 10 13 14 11 12 14 15 14 14 13 13 12 10 10 13 16 17 18 18 18 19 18 16 16 15 15 17 15
6 5 4 4 3 3 3 3 1 1 3 4 4 5 8 8 10 12 11 12 13 15 14 15 15 15 14 12 10 9 11 16 18 18 20 21 22 21 21 17 21 21 20
7 6 7 5 5 5 4 4 5 5 4 4 4 5 7 8 11 13 13 12 13 14 15 16 16 16 15 13 12 11 10 10 15 16 18 21 23 24 25 25 24 21 22
7 7 6 7 6 6 6 6 6 5 6 7 6 7 8 10 11 13 13 12 14 14 16 16 16 16 15 13 12 11 10 9 10 11 15 19 22 24 25 26 27 27 9
8 8 7 6 6 6 6 7 7 6 6 7 9 9 9 9 10 12 12 14 15 15 15 15 16 16 15 14 13 11 10 9 9 10 11 14 19 22 24 25 27 27 24
10 8 7 6 6 5 5 6 7 6 6 6 7 7 10 11 9 11 13 14 15 15 15 14 15 15 15 14 13 12 11 10 11 10 10 10 14 20 23 25 26 27 27
12 10 8 7 6 5 4 4 6 7 6 5 7 8 9 9 10 11 13 14 14 14 14 13 14 13 14 14 14 13 12 11 11 10 9 9 10 13 21 23 25 27 27
14 12 10 9 7 6 5 4 5 6 6 6 6 8 8 8 9 10 11 12 13 13 13 13 13 14 14 14 14 13 13 12 11 10 8 9 9 9 13 25 26 26 26
15 14 12 10 9 7 6 5 4 5 6 6 6 7 7 7 8 9 10 11 12 12 13 13 13 13 14 14 13 13 12 11 10 9 8 8 8 9 9 8 24 24 25
18 16 13 12 10 8 8 6 5 4 5 6 6 6 6 7 8 9 9 11 12 12 12 12 13 13 13 13 13 12 11 10 9 8 9 8 8 9 9 8 7 22 23
19 17 14 13 11 10 9 7 6 5 5 6 6 7 6 6 7 8 9 10 11 11 12 12 13 13 13 13 12 11 10 10 9 9 9 9 9 9 10 9 8 7 19
21 18 16 14 12 11 10 9 7 6 5 5 6 6 6 6 6 8 9 10 10 10 11 11 11 12 11 11 11 10 10 10 10 9 10 10 11 12 12 12 11 10 9
Wind_Direction
102 91 78 68 60 51 45 40 35 30 29 27 26 24 24 23 23 22 22 23 22 23 25 26 30 29 35 37 35 40 14 9 188 290 310 316 313 304 300 290 286 295 302
97 84 73 65 57 49 44 39 35 30 28 27 25 24 23 23 23 22 21 22 22 22 23 26 29 32 35 42 42 37 47 324 294 301 300 313 320 312 304 300 299 292 290
96 83 72 63 54 47 41 37 33 30 28 27 26 24 23 23 23 23 21 21 22 23 24 27 29 34 36 41 44 44 60 73 296 270 294 308 313 316 314 302 299 293 297
97 83 70 60 50 45 39 34 31 29 27 27 26 25 24 23 24 24 21 18 20 23 25 29 31 38 42 45 48 55 68 69 125 284 323 311 317 310 314 305 298 296 293
97 80 67 57 48 41 35 32 30 28 27 27 26 25 24 24 26 22 19 18 20 22 27 31 36 44 50 58 59 63 72 68 72 222 13 309 312 303 306 306 298 293 295
102 78 62 52 41 36 31 29 28 26 26 27 26 25 23 25 23 22 18 17 20 23 25 32 42 63 64 72 71 76 85 79 80 83 82 159 291 316 302 299 304 304 295
109 70 53 44 34 30 28 26 25 24 25 25 25 24 22 22 22 20 19 19 21 25 28 34 50 112 252 270 136 106 97 104 95 89 102 139 93 334 305 293 294 301 298
160 140 72 47 32 28 24 22 23 23 22 23 22 22 20 21 21 20 19 19 23 27 31 39 57 174 259 269 181 132 103 108 100 98 104 111 143 125 303 285 294 280 279
178 176 157 108 50 31 20 19 21 21 20 21 21 19 18 19 20 21 22 21 25 28 34 45 66 145 255 266 222 169 130 112 119 91 104 114 127 143 180 219 274 281 284
181 175 163 148 114 39 24 19 20 21 18 20 19 19 18 17 21 23 25 25 26 30 35 47 67 125 248 260 206 168 131 124 111 104 111 107 119 137 145 166 185 219 301
171 169 167 158 150 86 29 23 21 20 18 17 16 18 20 22 23 26 28 28 31 31 37 46 64 83 211 228 211 163 170 157 125 109 102 96 99 106 121 128 166 171 173
173 172 173 168 152 91 41 26 22 19 16 16 17 20 26 29 29 29 31 32 34 35 39 50 61 75 124 137 115 148 152 133 113 106 98 90 97 101 98 99 118 126 136
193 193 186 176 171 156 60 25 21 19 18 18 20 22 26 32 32 35 35 36 39 41 47 51 62 77 92 84 73 79 93 86 86 84 86 85 88 96 101 83 79 86 93
231 227 219 215 211 187 53 29 21 20 20 22 23 24 28 32 34 40 38 39 42 47 48 51 65 87 102 96 66 55 54 55 70 64 61 69 87 83 80 70 81 83 82
265 261 264 269 266 296 314 9 18 24 28 25 28 28 27 31 36 35 37 40 42 46 47 59 66 78 94 108 102 63 47 43 39 39 39 35 46 56 56 58 55 45 47
278 281 291 306 320 328 343 356 359 351 16 24 26 28 30 34 34 38 43 46 47 50 56 61 64 71 82 93 104 112 89 49 35 33 21 16 15 22 23 45 25 23 29
272 288 304 304 318 329 343 354 4 28 39 41 42 45 42 39 39 41 44 49 56 58 61 60 62 68 76 86 94 98 93 94 47 39 29 10 4 358 346 359 11 27 22
265 279 294 309 312 325 337 349 5 18 25 35 53 53 52 47 48 46 47 54 60 64 63 64 64 67 74 82 87 89 93 96 86 68 40 21 6 358 354 344 339 346 63
270 281 283 303 310 321 334 344 354 9 24 31 45 47 55 56 55 51 54 54 56 61 65 68 67 68 70 77 81 87 89 90 84 77 68 43 20 5 357 351 345 330 308
278 275 286 291 304 310 323 335 346 358 17 31 37 50 53 56 62 58 54 54 56 62 68 72 73 72 71 74 77 81 84 84 76 73 73 66 40 16 1 352 344 332 341
282 281 275 292 293 301 312 322 338 349 3 29 36 45 51 58 58 58 53 52 56 64 72 79 79 80 75 76 77 79 80 81 75 75 70 67 59 42 8 359 349 332 326
277 280 276 279 289 294 301 317 332 341 352 6 33 39 49 54 59 59 58 59 61 69 73 77 84 81 78 80 79 80 81 78 74 75 76 65 63 62 42 340 327 326 322
269 273 278 281 285 292 297 308 319 331 342 352 12 33 44 56 58 66 67 64 63 67 74 75 78 81 82 82 84 83 84 81 77 75 74 70 67 69 65 71 305 310 316
264 266 271 278 283 287 295 299 306 316 330 343 352 13 38 49 58 67 74 67 62 64 69 74 74 75 79 79 85 91 90 87 81 81 73 77 79 76 78 84 101 297 310
259 260 264 270 276 280 288 293 301 308 315 327 339 349 17 42 61 62 71 65 61 63 63 67 68 71 77 79 84 92 91 87 86 82 80 84 85 86 85 89 98 130 294
256 256 260 266 272 276 282 286 290 295 302 313 327 339 356 33 55 62 59 61 63 63 63 62 68 70 75 85 87 89 90 87 85 83 82 86 85 86 88 88 93 102 118